Regional Weather Roundup
Issued by NWS Grand Forks, ND

Home | Current Version | Previous Version | Text Only | Print | Product List | Glossary On
Versions: 1 2 3 4 5 6 7 8 9 10 11 12 13 14 15 16 17 18 19 20 21 22 23 24 25 26 27 28 29 30 31 32 33 34 35 36 37 38 39 40 41 42 43 44 45 46 47 48 49 50
000
ASUS43 KFGF 281231
RWRFGF
PRAIRIE TO PINES  WEATHER ROUNDUP
NATIONAL WEATHER SERVICE EASTERN NORTH DAKOTA/GRAND FORKS ND
700 AM CDT WED SEP 28 2016

 **SATELLITE DATA USED TO AUGMENT SKY COVER AT AUTOMATED STATIONS**
 *****  WEATHER ACROSS EASTERN NORTH DAKOTA  *****

CITY           SKY/WX    TMP DP  RH WIND       PRES   REMARKS
GRAND FORKS    CLOUDY    37  36  96 NW5       30.20R
6HR MIN TEMP:  37; 6HR MAX TEMP:  51;

GRAND FRKS AFB CLOUDY    37  36  93 N3        30.22R
GRAND FRKS NWS   N/A     39 N/A N/A N3          N/A
DEVILS LAKE    CLOUDY    45  43  93 NE6       30.22R
6HR MIN TEMP:  41; 6HR MAX TEMP:  47;

FARGO          CLOUDY    44  40  85 N5        30.19R
WAHPETON ARPT  CLOUDY    43  41  93 N5        30.19R
$$

 ***** WEATHER ACROSS CENTRAL AND WESTERN NORTH DAKOTA  *****

CITY           SKY/WX    TMP DP  RH WIND       PRES   REMARKS
BISMARCK       CLOUDY    37  35  92 NE6       30.20R
6HR MIN TEMP:  37; 6HR MAX TEMP:  46;

MINOT          CLEAR     40  37  89 SE6       30.18R
6HR MIN TEMP:  40; 6HR MAX TEMP:  49;

JAMESTOWN      CLOUDY    44  43  96 NW3       30.20R
6HR MIN TEMP:  37; 6HR MAX TEMP:  44;

MINOT AFB      CLEAR     37  36  93 SE5       30.18R
GARRISON         N/A     42  40  92 E7        30.18R
WILLISTON      CLEAR     47  44  90 CALM      30.18R
6HR MIN TEMP:  47; 6HR MAX TEMP:  56;

DICKINSON      CLEAR     46  41  82 CALM      30.14R
6HR MIN TEMP:  45; 6HR MAX TEMP:  52;

HETTINGER      CLEAR     42  40  92 CALM      30.17R
6HR MIN TEMP:  42; 6HR MAX TEMP:  50;

$$

 *****  OTHER AIRPORT OBSERVATIONS IN OUR AREA  *****

CITY           SKY/WX    TMP DP  RH WIND       PRES   REMARKS
WALHALLA       FAIR      39  37  93 CALM      30.24R
GRAFTON AIRPOR FAIR      41  41 100 NW6       30.24R
VALLEY CITY AR FAIR      41  41 100 N5        30.22R
CANDO          FOG       32  32 100 CALM      30.25R VSB 1/4
CAVALIER APRT  FAIR      39  39 100 W3        30.23R
GWINNER        FAIR      39  39 100 N7        30.19R
SHEYENNE NWR     N/A     39  37  94 N2        29.95S
ROLLA          FOG       36  36 100 SW7       30.22R VSB 3/4
 ***** THE ABOVE OBSERVATIONS ARE NON NWS ARE NOT QUALITY
       CONTROLLED AND MAY MIS-REPORT RAIN FOR SNOW...
$$

  *****  WEATHER ACROSS NORTHERN MINNESOTA  *****

CITY           SKY/WX    TMP DP  RH WIND       PRES   REMARKS
FLAG ISLAND    CLOUDY    50  48  93 NW7       30.19R
WARROAD        CLOUDY    48  45  87 N5        30.20R
ROSEAU         CLOUDY    48  43  81 CALM      30.21R
HALLOCK        CLOUDY    37  37 100 CALM      30.22R FOG
THF RVR FALLS    N/A     45  43  93 NW6       30.20R
6HR MIN TEMP:  40; 6HR MAX TEMP:  48;

BAUDETTE       MOCLDY    48  46  93 N6        30.19R
6HR MIN TEMP:  44; 6HR MAX TEMP:  49;

WASKISH        CLOUDY    46  45  93 NE6       30.19R FOG
CROOKSTON      CLOUDY    45  43  93 NE3       30.22R
STEPHEN NDAWN    N/A     37  37 100 CALM        N/A
GREENBUSH NDAW   N/A     41  41 100 SE1         N/A
$$
  *****  WEATHER ACROSS CENTRAL AND WEST MINNESOTA  *****

CITY           SKY/WX    TMP DP  RH WIND       PRES   REMARKS
FOSSTON        CLOUDY    43  43 100 CALM      30.20R
BEMIDJI        MOCLDY    44  44  99 NW5       30.17R
PARK RAPIDS    CLOUDY    48  44  86 N9        30.15R
6HR MIN TEMP:  46; 6HR MAX TEMP:  48;

ELBOW LAKE     CLOUDY    46  45  96 NE7       30.17R
WADENA         CLOUDY    46  45  93 CALM      30.14R
DETROIT LAKES  CLOUDY    46  45  93 N3        30.19R
MOORHEAD       CLOUDY    45  43  93 N6        30.21R
FERGUS FALLS   CLOUDY    46  46 100 E5        30.20R
MORRIS MN      CLOUDY    46  45  93 N9        30.15R
STAPLES        PTCLDY    43  43 100 N3        30.14R
$$
  *****  WEATHER ELSEWHERE ACROSS MINNESOTA  *****

CITY           SKY/WX    TMP DP  RH WIND       PRES   REMARKS
DULUTH         PTCLDY    49  47  93 N9        30.07R
6HR MIN TEMP:  49; 6HR MAX TEMP:  51;

INTRNTL FALLS  CLOUDY    51  48  89 NE7       30.16R
6HR MIN TEMP:  48; 6HR MAX TEMP:  51;

ELY            CLOUDY    48  48 100 N5        30.13R
CLOQUET        CLOUDY    46  45  93 N13G18    30.09R
WHEATON        CLOUDY    43  41  93 N3        30.19R
BRAINERD       PTCLDY    48  46  93 N7        30.11R
6HR MIN TEMP:  47; 6HR MAX TEMP:  50;

HIBBING        PTCLDY    48  46  93 N7        30.11R
6HR MIN TEMP:  46; 6HR MAX TEMP:  49;

ALEXANDRIA     CLOUDY    47  46  97 N8        30.15R
6HR MIN TEMP:  46; 6HR MAX TEMP:  47;

SAINT CLOUD    CLEAR     48  47  96 N9        30.09R
6HR MIN TEMP:  47; 6HR MAX TEMP:  49;

MINNEAPOLIS    CLOUDY    51  46  83 N13       30.06R
6HR MIN TEMP:  50; 6HR MAX TEMP:  51;

$$

  *****  WEATHER ACROSS SOUTH DAKOTA  *****

CITY           SKY/WX    TMP DP  RH WIND       PRES   REMARKS
SIOUX FALLS    CLOUDY    44  42  93 CALM      30.12R
6HR MIN TEMP:  44; 6HR MAX TEMP:  48;

BROOKINGS      CLEAR     44  41  89 N8        30.14R
WATERTOWN      CLOUDY    38  36  92 N7        30.15R
6HR MIN TEMP:  38; 6HR MAX TEMP:  48;

HURON          CLOUDY    41  40  96 N8        30.16R
6HR MIN TEMP:  34; 6HR MAX TEMP:  47;

SISSETON         N/A     38  36  92 N7        30.17R
ABERDEEN       CLOUDY    39  36  89 NW6       30.18R
6HR MIN TEMP:  37; 6HR MAX TEMP:  42;

MITCHELL       CLOUDY    40  38  93 NW6       30.16R
PIERRE         CLOUDY    40  35  83 E3        30.16R
6HR MIN TEMP:  39; 6HR MAX TEMP:  53;

MOBRIDGE       CLOUDY    45  39  79 E7        30.17R
RAPID CITY     CLEAR     53  40  61 NW10      30.17R
6HR MIN TEMP:  50; 6HR MAX TEMP:  57;

$$

  *****  SOME WEATHER IN NEARBY STATES *****

CITY           SKY/WX    TMP DP  RH WIND       PRES   REMARKS
GLASGOW MT     CLEAR     50  43  77 VRB7      30.24R
6HR MIN TEMP:  49; 6HR MAX TEMP:  61;

GREAT FALLS MT CLEAR     38  35  89 NW3       30.32S
6HR MIN TEMP:  38; 6HR MAX TEMP:  48;

CHEYENNE WY    CLOUDY    46  31  55 NW9       30.32R
6HR MIN TEMP:  45; 6HR MAX TEMP:  51;

SCOTTSBLUFF NE CLEAR     47  39  74 NW7       30.23R
6HR MIN TEMP:  47; 6HR MAX TEMP:  53;

OMAHA NE       CLEAR     47  42  83 N9        30.05R
6HR MIN TEMP:  47; 6HR MAX TEMP:  54;

DES MOINES IA  MOCLDY    52  44  74 N7        29.99R
6HR MIN TEMP:  51; 6HR MAX TEMP:  61;

DAVENPORT IA   CLOUDY    50  43  77 N14G23    29.91R
6HR MIN TEMP:  48; 6HR MAX TEMP:  54;

CHICAGO IL     CLOUDY    51  46  83 N9        29.82R
6HR MIN TEMP:  50; 6HR MAX TEMP:  54; 6HR PCP: TRACE;

EAU CLAIRE WI  CLOUDY    52  49  89 N10       29.96R
6HR MIN TEMP:  49; 6HR MAX TEMP:  52;

LA CROSSE WI   CLOUDY    53  50  89 N13       29.93R
6HR MIN TEMP:  52; 6HR MAX TEMP:  53; 6HR PCP: TRACE;

$$

  *****  SOME NATIONAL WEATHER *****

CITY           SKY/WX    TMP DP  RH WIND       PRES   REMARKS
LA GUARDIA NY  PTSUNNY   67  62  84 E15       30.07R
6HR MIN TEMP:  64; 6HR MAX TEMP:  68;

RALEIGH NC     MOCLDY    71  69  93 S5        29.94S
6HR MIN TEMP:  70; 6HR MAX TEMP:  71;

ATLANTA GA     PTCLDY    67  62  84 NW8       29.94S
6HR MIN TEMP:  66; 6HR MAX TEMP:  71;

NEW ORLEANS LA CLOUDY    78  64  61 NE3       29.96R
6HR MIN TEMP:  78; 6HR MAX TEMP:  82;

OKLAHOMA CITY  PTCLDY    56  49  77 SW5       30.00R
6HR MIN TEMP:  55; 6HR MAX TEMP:  59;

ALBUQUERQUE NM PTCLDY    57  44  62 N5        30.26R
6HR MIN TEMP:  56; 6HR MAX TEMP:  63;

SALT LAKE CITY CLEAR     55  47  74 SE7       30.15S
6HR MIN TEMP:  55; 6HR MAX TEMP:  61;

LOS ANGELES CA MOCLDY    71  60  68 E7        29.89R
6HR MIN TEMP:  71; 6HR MC1F1C2F2C3F3C4F4C5F5C6F6C7F7C8F8C9F9CaFaCbFbCcFcCd!


USA.gov is the U.S. government's official web portal to all federal, state and local government web resources and services.